Weather Roundup
Issued by NWS Corpus Christi, TX

Home | Current Version | Previous Version | Text Only | Print | Product List | Glossary On
Versions: 1 2 3 4 5 6 7 8 9 10 11 12 13 14 15 16 17 18 19 20 21 22 23 24 25 26 27 28 29 30 31 32 33 34 35 36 37 38 39 40 41 42 43 44 45 46 47 48 49 50
000
ASUS44 KCRP 231510
HRRCRP

SOUTH TEXAS REGIONAL WEATHER ROUNDUP
NATIONAL WEATHER SERVICE CORPUS CHRISTI TX
1000 AM CDT SAT SEP 23 2017


TXZ229>244-231600-
...CORPUS CHRISTI AREA OBSERVATIONS...

CITY           SKY/WX    TMP DP  RH WIND       PRES   REMARKS
CORPUS CHRISTI LGT RAIN  83  75  77 E8        29.88S HX  90
NAS CORPUS CHR MOSUNNY   85  77  77 SE13      29.88R HX  95
ROCKPORT       NOT AVBL
KINGSVILLE ARP FAIR      85  78  78 E10       29.89S HX  96
KINGSVILLE NAS MOSUNNY   88  77  69 E12       29.88S HX 100
ALICE          NOT AVBL
$$

...VICTORIA AREA OBSERVATIONS...

CITY           SKY/WX    TMP DP  RH WIND       PRES   REMARKS
PORT LAVACA    MOSUNNY   84  75  73 E6        29.91S HX  92
VICTORIA       MOSUNNY   82  75  79 SE8       29.92S
BEEVILLE       FAIR      82  78  90 E7        29.90S HX  91
PLEASANTON     MOSUNNY   81  73  76 SE6       29.93R
SAN ANTONIO    PTSUNNY   78  72  81 SE7       29.95S
$$

...LAREDO AREA OBSERVATIONS...

CITY           SKY/WX    TMP DP  RH WIND       PRES   REMARKS
LAREDO         NOT AVBL
DEL RIO        NOT AVBL
MCALLEN        MOSUNNY   86  75  70 SE13      29.87R HX  95
HEBBRONVILLE   PTSUNNY   81  72  74 SE9       29.90S
$$

...OTHER TEXAS OBSERVATIONS...

CITY           SKY/WX    TMP DP  RH WIND       PRES   REMARKS
BROWNSVILLE    MOSUNNY   84  77  79 SE9       29.87S HX  94
HOUSTON        MOSUNNY   82  75  79 SE5       29.94R
COL. STATION   NOT AVBL
AUSTIN         CLOUDY    75  73  94 S5        29.96R FOG
WACO           CLOUDY    78  73  84 S10       29.97R
FORT WORTH     SUNNY     82  71  69 S8        29.96R
WICHITA FALLS  SUNNY     79  67  66 S16       29.95S
LUBBOCK        CLOUDY    71  64  78 S21       29.96R
EL PASO        CLOUDY    73  61  65 E3        29.87R
$$

...MARINE OBSERVATIONS...

STATION/POSITION TIME  SKY/WX   TEMP    WIND        PRES    VSBY  WAVE   SWELL
                                AIR SEA DIR/SP/G                  HT/PER HT/PER
                 (UTC)          (F)     (DEG/KT/KT) (MB)    (MI)  (FT/S) (FT/S)
PORT ARANSAS     NOT AVBL
BUOY 90 E PORT A 1450            83 84   80/ 12/ 14 1012.5R         3/ 5   2/14
BUOY 200 E PT IS 1350            84 85  120/ 12/ 14 1011.7          2/ 5   2/ 6
BUOY 15 E GALVES NOT AVBL
$$




USA.gov is the U.S. government's official web portal to all federal, state and local government web resources and services.